Terminal Aerodrome Forecast
Issued by NWS Wilmington, OH

Current Version | Previous Version | Graphics & Text | Print | Product List | Glossary On
Versions: 1 2 3 4 5 6 7 8 9 10 11 12 13 14 15 16 17 18 19 20 21 22 23 24 25 26
955
FTUS41 KILN 250804 AAA
TAFCVG
TAF AMD
KCVG 250804Z 2508/2612 22004KT P6SM VCTS FEW030CB BKN250
     FM251300 24008KT P6SM BKN100 OVC250
     FM251800 25009KT P6SM VCTS SCT050CB
     FM252100 30007KT P6SM VCTS SCT040CB SCT100
     FM260100 25004KT P6SM SCT250=

USA.gov is the U.S. government's official web portal to all federal, state and local government web resources and services.